Location: Newark
(36.3167°N, 3.7500°E)
Time: 01:40:26
(UTC+00:00)

ISS - Visible Passes

Search period start: 23 November 2019 00:00
Search period end: 03 December 2019 00:00
Orbit: 412 x 421 km, 51.6° (Epoch: 23 November)

Date Brightness Start Highest point End Pass type
(mag) Time Alt. Az. Time Alt. Az. Time Alt. Az.
23 Nov -2.0 18:13:10 10° W 18:15:59 25° NNW 18:16:34 24° NNW visible
24 Nov -2.7 17:24:17 10° WSW 17:27:27 40° NW 17:30:14 13° NNE visible
25 Nov -1.2 18:14:37 10° NW 18:16:13 13° NNW 18:16:44 12° NNW visible
26 Nov -1.5 17:25:09 10° WNW 17:27:31 18° NNW 17:29:54 10° NNE visible
